Home > Weather > Ojinaga > Past weeks

Flag for Mexico Past Weather in Ojinaga, Chihuahua, Mexico — Yesterday and Last 2 Weeks

Now
75 °F

Passing clouds.


Feels Like: 77 °F
Forecast: 69 / 96 °F
Wind: 5 mph from Northwest

Location: Marfa Municipal Airport

Current Time: May 25, 2016 at 9:02:56 PM

Latest Report: May 25, 2016 at 7:56 PM


Visibility: 10 mi

Pressure: N/A

Humidity: 36%

Dew Point: 46 °F

Location of OjinagaLocation

Past Weather in Ojinaga — Graph

°F

Ojinaga Temperature Yesterday

Maximum temperature yesterday: 85 °F (at 1:56 PM)
Minimum temperature yesterday: 48 °F (at 5:56 AM)
Average temperature yesterday: 69 °F

High & Low Weather Summary for the Past Weeks

 TemperatureHumidityPressure
High91 °F (May 25, 3:56 PM)100% (May 19, 4:01 AM)30.17 "Hg (May 19, 4:01 AM)
Low46 °F (May 16, 4:56 AM)8% (May 22, 4:56 PM)29.73 "Hg (May 23, 6:56 PM)
Average66 °F60%29.96 "Hg
* Reported May 11 1:56 PM — May 25 7:56 PM, Ojinaga, Weather by CustomWeather, © 2016

Note: Actual official high and low records may vary slightly from our data, if they occured in-between our weather recording intervals... More about our weather records

Advertising

Ojinaga Weather History for the Previous 24 Hours

Scroll right to see more
 ConditionsComfort  
Time TempWeatherWind HumidityBarometerVisibility
7:56 PM
Wed, May 25
75 °FPassing clouds.5 mph36%N/A10 mi
6:56 PM83 °FPartly sunny.12 mph19%29.90 "Hg10 mi
5:56 PM86 °FSunny.12 mph16%29.90 "Hg10 mi
4:56 PM90 °FSunny.20 mph13%29.88 "Hg10 mi
3:56 PM91 °FSunny.20 mph14%29.88 "Hg10 mi
2:56 PM87 °FSunny.21 mph14%29.91 "Hg10 mi
1:56 PM86 °FSunny.13 mph15%29.94 "Hg10 mi
12:56 PM90 °FSunny.26 mph15%29.93 "Hg10 mi
11:56 AM89 °FSunny.21 mph16%29.95 "Hg10 mi
10:56 AM84 °FSunny.8 mph15%29.99 "Hg10 mi
9:56 AM83 °FSunny.16 mph15%29.98 "Hg10 mi
8:56 AM79 °FSunny.14 mph12%29.99 "Hg10 mi
7:56 AM71 °FSunny.No wind22%29.99 "Hg10 mi
6:56 AM61 °FSunny.3 mph44%29.99 "Hg10 mi
5:56 AM55 °FClear.3 mph53%29.98 "Hg10 mi
4:56 AM57 °FClear.6 mph47%29.94 "Hg10 mi
3:56 AM59 °FClear.6 mph41%29.92 "Hg10 mi
2:56 AM60 °FClear.No wind44%29.92 "Hg10 mi
1:56 AM60 °FClear.3 mph44%29.91 "Hg10 mi
12:56 AM59 °FClear.No wind46%29.93 "Hg10 mi
11:56 PM
Tue, May 24
59 °FClear.3 mph42%29.94 "Hg10 mi
10:56 PM62 °FClear.No wind38%29.94 "Hg10 mi
9:56 PM65 °FClear.8 mph31%29.93 "Hg10 mi
Weather by CustomWeather, © 2016

See weather overviewHow to use our weather pages